Weather History for EGLL - December, 2013

Change the Weather History Date:

Wednesday, December 4, 2013

  Actual Average Record
Temperature  
Mean Temperature 40 °F -  
Max Temperature 48 °F 45 °F 59 °F (2006)
Min Temperature 32 °F 36 °F 30 °F (1998)
Degree Days  
Heating Degree Days 25    
Moisture  
Dew Point 37 °F    
Average Humidity 81    
Maximum Humidity 100    
Minimum Humidity 47    
Precipitation  
Precipitation 0.00 in - - ()
Sea Level Pressure  
Sea Level Pressure 30.40 in    
Wind  
Wind Speed 7 mph ()    
Max Wind Speed 12 mph    
Max Gust Speed -    
Visibility 7.0 miles    
Events Rain    
Averages and records for this station are not official NWS values.
T = Trace of Precipitation, MM = Missing Value Source: Averaged Metar Reports

Daily Weather History Graph

Daily Weather History Graph

Search for Another Location

Airport or City:

Trip Planner

Search our weather history database for the weather conditions in past years. The results will help you decide how hot, cold, wet, or windy it might be!

Date:

Astronomy

Dec. 04, 2013 Rise Set
Actual Time 7:49 AM GMT 3:54 PM GMT
Civil Twilight 7:09 AM GMT 4:34 PM GMT
Nautical Twilight 6:27 AM GMT 5:16 PM GMT
Astronomical Twilight 5:46 AM GMT 5:56 PM GMT
Moon 8:59 AM GMT (12/4) 5:53 PM GMT (12/4)
Length of Visible Light 9h 24m
Length of Day
8h 05m
Waxing Crescent, 3% of the Moon is Illuminated
Dec 4
Waxing Crescent
Dec 9
First Quarter
Dec 17
Full
Dec 25
Last Quarter
Jan 1
New

Hourly Weather History & Observations

Time (GMT) Temp. Windchill Dew Point Humidity Pressure Visibility Wind Dir Wind Speed Gust Speed Precip Events Conditions
12:00 AM 42 °F - 35 °F 68% 30.35 in 9 mi WSW 9.2 mph - -   Overcast
12:20 AM 41.0 °F 35.8 °F 35.6 °F 81% 30.33 in 6.2 mi WSW 8.1 mph - N/A   Mostly Cloudy
12:50 AM 41.0 °F 36.4 °F 37.4 °F 87% 30.33 in 6.2 mi WSW 6.9 mph - N/A   Mostly Cloudy
1:20 AM 41.0 °F 35.8 °F 37.4 °F 87% 30.33 in 5.6 mi WSW 8.1 mph - N/A   Overcast
1:50 AM 41.0 °F 36.4 °F 37.4 °F 87% 30.33 in 5.0 mi WSW 6.9 mph - N/A   Mostly Cloudy
2:20 AM 41.0 °F 37.1 °F 37.4 °F 87% 30.33 in 5.6 mi WSW 5.8 mph - N/A   Overcast
2:50 AM 41.0 °F 36.4 °F 37.4 °F 87% 30.30 in 6.2 mi WSW 6.9 mph - N/A   Overcast
3:00 AM 42 °F - 36 °F 72% 30.32 in 7 mi WSW 8.1 mph - -   Overcast
3:20 AM 42.8 °F 38.0 °F 37.4 °F 81% 30.30 in 6.2 mi WSW 8.1 mph - N/A   Mostly Cloudy
3:50 AM 42.8 °F 38.6 °F 37.4 °F 81% 30.30 in 6.2 mi West 6.9 mph - N/A   Mostly Cloudy
4:20 AM 42.8 °F 38.6 °F 37.4 °F 81% 30.30 in 6.2 mi West 6.9 mph - N/A   Mostly Cloudy
4:50 AM 42.8 °F 38.6 °F 37.4 °F 81% 30.30 in 6.2 mi West 6.9 mph - N/A   Mostly Cloudy
5:20 AM 42.8 °F 38.6 °F 39.2 °F 87% 30.30 in 6.2 mi WSW 6.9 mph - N/A   Mostly Cloudy
5:50 AM 44.6 °F 40.7 °F 39.2 °F 81% 30.30 in - WSW 6.9 mph - N/A   Clear
6:00 AM 44 °F - 38 °F 71% 30.32 in 7 mi WSW 6.9 mph - -  
6:20 AM 44.6 °F 40.7 °F 39.2 °F 81% 30.30 in 6.2 mi WSW 6.9 mph - N/A   Mostly Cloudy
6:50 AM 44.6 °F 39.7 °F 39.2 °F 81% 30.30 in 6.2 mi WSW 9.2 mph - N/A   Partly Cloudy
7:20 AM 44.6 °F 39.2 °F 41.0 °F 87% 30.30 in 6.2 mi WSW 10.4 mph - N/A   Scattered Clouds
7:50 AM 44.6 °F 40.2 °F 41.0 °F 87% 30.33 in 5.6 mi West 8.1 mph - N/A   Scattered Clouds
8:20 AM 46.4 °F 41.1 °F 41.0 °F 81% 30.33 in 6.2 mi WSW 11.5 mph - N/A   Mostly Cloudy
8:50 AM 46.4 °F 41.9 °F 41.0 °F 81% 30.33 in 5.6 mi West 9.2 mph - N/A   Light Drizzle
9:00 AM 46 °F - 40 °F 74% 30.35 in 7 mi West 9.2 mph - - Rain Light Rain Showers
9:20 AM 46.4 °F 41.5 °F 42.8 °F 87% 30.36 in 4.3 mi West 10.4 mph - N/A   Light Drizzle
9:50 AM 44.6 °F 40.2 °F 44.6 °F 100% 30.36 in - WNW 8.1 mph - N/A   Light Drizzle
10:20 AM 46.4 °F 42.9 °F 44.6 °F 93% 30.36 in 3.7 mi West 6.9 mph - N/A   Mostly Cloudy
10:50 AM 46.4 °F 43.5 °F 44.6 °F 93% 30.39 in 4.3 mi WNW 5.8 mph - N/A   Mostly Cloudy
11:20 AM 46.4 °F 43.5 °F 42.8 °F 87% 30.39 in 6.2 mi NW 5.8 mph - N/A   Mostly Cloudy
11:50 AM 48.2 °F - 41.0 °F 76% 30.39 in 6.2 mi NW 6.9 mph - N/A   Mostly Cloudy
12:00 PM 47 °F - 40 °F 68% 30.40 in 16 mi NW 8.1 mph - -   Mostly Cloudy
12:20 PM 48.2 °F - 41.0 °F 76% 30.39 in 6.2 mi NW 6.9 mph - N/A   Mostly Cloudy
12:50 PM 48.2 °F - 39.2 °F 71% 30.39 in 6.2 mi NW 6.9 mph - N/A   Mostly Cloudy
1:20 PM 48.2 °F - 35.6 °F 62% 30.39 in 6.2 mi NNW 6.9 mph - N/A   Mostly Cloudy
1:50 PM 48.2 °F - 35.6 °F 62% 30.42 in 6.2 mi NNW 6.9 mph - N/A   Mostly Cloudy
2:20 PM 46.4 °F 42.4 °F 33.8 °F 62% 30.42 in - NW 8.1 mph - N/A   Clear
2:50 PM 46.4 °F 42.9 °F 33.8 °F 62% 30.42 in - NNW 6.9 mph - N/A   Clear
3:00 PM 46 °F - 32 °F 47% 30.44 in 28 mi NNW 6.9 mph - -   Scattered Clouds
3:20 PM 44.6 °F 42.2 °F 33.8 °F 66% 30.45 in - NNW 4.6 mph - N/A   Clear
3:50 PM 44.6 °F 43.1 °F 35.6 °F 71% 30.45 in - Variable 3.5 mph - N/A   Clear
4:20 PM 42.8 °F 41.1 °F 35.6 °F 76% 30.45 in 6.2 mi WNW 3.5 mph - N/A   Unknown
4:50 PM 41.0 °F 38.0 °F 35.6 °F 81% 30.48 in - WNW 4.6 mph - N/A   Clear
5:20 PM 41.0 °F 37.1 °F 35.6 °F 81% 30.48 in - WNW 5.8 mph - N/A   Clear
5:50 PM 41.0 °F 37.1 °F 35.6 °F 81% 30.48 in - West 5.8 mph - N/A   Clear
6:00 PM 41 °F - 34 °F 68% 30.48 in 19 mi West 5.8 mph - -  
6:20 PM 39.2 °F 35.0 °F 35.6 °F 87% 30.48 in - West 5.8 mph - N/A   Clear
6:50 PM 39.2 °F 33.6 °F 35.6 °F 87% 30.48 in - West 8.1 mph - N/A   Clear
7:20 PM 39.2 °F 33.6 °F 33.8 °F 81% 30.48 in - West 8.1 mph - N/A   Clear
7:50 PM 37.4 °F 32.1 °F 33.8 °F 87% 30.51 in - West 6.9 mph - N/A   Clear
8:20 PM 37.4 °F 31.4 °F 33.8 °F 87% 30.51 in - West 8.1 mph - N/A   Clear
8:50 PM 33.8 °F 27.0 °F 32.0 °F 93% 30.51 in - West 8.1 mph - N/A   Clear
9:00 PM 39 °F - 34 °F 76% 30.50 in 15 mi West 8.1 mph - -  
9:20 PM 35.6 °F 28.6 °F 33.8 °F 93% 30.48 in - West 9.2 mph - N/A   Clear
9:50 PM 33.8 °F 26.4 °F 32.0 °F 93% 30.48 in - West 9.2 mph - N/A   Clear
10:20 PM 33.8 °F 27.7 °F 32.0 °F 93% 30.51 in - West 6.9 mph - N/A   Clear
10:50 PM 32.0 °F 24.2 °F 30.2 °F 93% 30.51 in - West 9.2 mph - N/A   Clear
11:20 PM 35.6 °F 29.2 °F 33.8 °F 93% 30.51 in - West 8.1 mph - N/A   Clear
11:50 PM 35.6 °F 29.2 °F 33.8 °F 93% 30.51 in - West 8.1 mph - N/A   Clear